This is the latest recevied weather packets stored in our database for station/object WB6ANP. If no packets are shown the sender has not sent any weather packets the latest 10 day(s).
| Time | Temp. | Humidity | Pressure | Rain* | Wind** | Luminosity | Snow |
|---|---|---|---|---|---|---|---|
| 1777120423 | 20° C | 98% | 1006.8 hPa | 0 mm | - | 26 W/m² | - |
| 1777120118 | 20° C | 98% | 1006.9 hPa | 0 mm | - | 24 W/m² | - |
| 1777119814 | 19.44° C | 98% | 1006.9 hPa | 0 mm | - | 22 W/m² | - |
| 1777119510 | 20° C | 98% | 1006.8 hPa | 0 mm | - | 17 W/m² | - |
| 1777119206 | 19.44° C | 98% | 1006.8 hPa | 0 mm | - | 13 W/m² | - |
| 1777118906 | 19.44° C | 98% | 1006.8 hPa | 0 mm | - | 9 W/m² | - |
| 1777118602 | 19.44° C | 98% | 1006.7 hPa | 0 mm | - | 7 W/m² | - |
| 1777118302 | 19.44° C | 98% | 1006.6 hPa | 0 mm | - | 1 W/m² | - |
| 1777118000 | 19.44° C | 98% | 1006.6 hPa | 0 mm | - | 1 W/m² | - |
| 1777117697 | 19.44° C | 98% | 1006.3 hPa | 0 mm | - | 1 W/m² | - |
| 1777117394 | 19.44° C | 98% | 1006.4 hPa | 0 mm | - | 1 W/m² | - |
| 1777117089 | 19.44° C | 98% | 1006.4 hPa | 0 mm | - | 0 W/m² | - |
| 1777116785 | 19.44° C | 98% | 1006.4 hPa | 0 mm | - | 0 W/m² | - |
| 1777116480 | 19.44° C | 98% | 1006.2 hPa | 0 mm | - | 0 W/m² | - |
| 1777116177 | 19.44° C | 98% | 1006.3 hPa | 0 mm | - | 0 W/m² | - |
| 1777115876 | 19.44° C | 97% | 1006.3 hPa | 0 mm | - | 0 W/m² | - |
| 1777115573 | 19.44° C | 97% | 1006.3 hPa | 0 mm | - | 0 W/m² | - |
| 1777115269 | 19.44° C | 97% | 1006.3 hPa | 0 mm | - | 0 W/m² | - |
| 1777114966 | 19.44° C | 97% | 1006.1 hPa | 0 mm | - | 0 W/m² | - |
| 1777114663 | 18.89° C | 97% | 1006.1 hPa | 0 mm | - | 0 W/m² | - |
| 1777114362 | 18.89° C | 97% | 1006.1 hPa | 0 mm | - | 0 W/m² | - |
| 1777114059 | 18.89° C | 97% | 1006 hPa | 0 mm | - | 0 W/m² | - |
| 1777113755 | 18.89° C | 97% | 1006.1 hPa | 0 mm | - | 0 W/m² | - |
| 1777113453 | 18.89° C | 96% | 1006.1 hPa | 0 mm | - | 0 W/m² | - |
| 1777113149 | 18.89° C | 96% | 1006 hPa | 0 mm | - | 0 W/m² | - |
* Rain latest hour (hover to see other rain measurements)
** Current wind speed in m/s (hover to see current wind gust speed)